ONEWEB-0164

Last updated on Sun Apr 25 2021 00:02:03 GMT+0000 (Coordinated Universal Time)

1 48063U 21025X 21114.58336806 -.01098477 00000-0 -53728-1 0 9993 2 48063 87.4209 339.3758 0011429 147.3421 257.9625 15.21297870 1762

Satellite not in orbit

ONEWEB-0164